User: anonymous
Location: Unspecified
(0.0000°N, 0.0000°E)
Time: 23:40:15
(UTC+00:00)
Language:

FALCON 9 R/B - Orbit

View from above orbital plane
View from above orbital plane
View from above satellite
View from above satellite

Ground track
Ground track

The orbit data is extracted from the following two-line orbital elements,

1 37253U 10066K   14212.74323153  .00008078  00000-0  92278-3 0  1290
2 37253 034.5005 102.1301 4356731 109.6897 301.4993 06.74487892 88567
Epoch (UTC): 31 July 2014 17:50:15
Eccentricity: 0.4356731
inclination: 34.5005°
perigee height: 299 km
apogee height: 10610 km
right ascension of ascending node: 102.1301°
argument of perigee: 109.6897°
revolutions per day: 6.74487892
mean anomaly at epoch: 301.4993°
orbit number at epoch: 8856

The dashed part of the orbit path shows where the satellite is in the earth's shadow,  

DLR